Location: Beadle
(51.4667°N, 109.0000°W)
Time: 05:42:28
(UTC+00:00)

Altair - Pass Details

Date: 31 May 2022
Orbit: 1501 x 1682 km, 47.2° (Epoch: 30 June)

Event Time Altitude Azimuth Distance (km) Brightness Sun altitude
Rises 22:36:23 0° 230° (SW) 4,801 10.8 41.3°
Reaches altitude 10° 22:39:32 10° 226° (SW) 3,841 10.5 40.8°
Maximum altitude 22:48:57 52° 154° (SSE) 1,982 8.5 39.4°
Drops below altitude 10° 22:58:37 10° 82° (E) 3,945 9.3 37.9°
Sets 23:01:53 0° 78° (ENE) 4,939 9.7 37.4°
